FW2516 Weather Reports


time (UTC)temp
C
wind
direction
speed
KPH
gust
KPH
rain 1hr
cm
rain 24hr
cm
rain mn
cm
humidity
%
barometer
mb
20260508183013 23 159 1.6 8.0 0.00 0.00 0.00 28 1015.7
20260508181510 21 316 4.8 14.5 0.00 0.00 0.00 29 1015.8
20260508180011 21 204 8.0 14.5 0.00 0.00 0.00 28 1016.0
20260508173010 21 101 3.2 12.9 0.00 0.00 0.00 33 1016.5
20260508171510 21 42 3.2 8.0 0.00 0.00 0.00 32 1016.7
20260508170012 21 229 3.2 12.9 0.00 0.03 0.00 29 1016.7
20260508163015 21 175 3.2 9.7 0.00 0.03 0.00 33 1017.0
20260508161509 21 90 3.2 8.0 0.00 0.03 0.00 31 1017.3
20260508160009 20 256 3.2 12.9 0.00 0.05 0.00 30 1017.6
20260508153006 19 132 4.8 11.3 0.00 0.05 0.00 33 1017.9
20260508151601 19 136 1.6 8.0 0.00 0.05 0.00 34 1017.8
20260508151501 18 134 1.6 8.0 0.00 0.05 0.00 34 1018.0
20260508150101 18 184 1.6 8.0 0.00 0.08 0.00 35 1017.9
20260508143117 18 360 3.2 9.7 0.00 0.08 0.00 40 1018.1
20260508141600 17 281 3.2 9.7 0.00 0.08 0.00 41 1018.2
20260508140112 16 9 1.6 6.4 0.00 0.13 0.00 43 1018.3
20260508133050 16 138 1.6 8.0 0.00 0.13 0.00 36 1018.2
20260508131546 15 82 0.0 4.8 0.00 0.13 0.00 20 1018.2
20260508130041 13 88 0.0 4.8 0.00 0.15 0.00 32 1017.9
20260508123045 10 61 0.0 8.0 0.00 0.15 0.00 44 1017.7
20260508121539 9 40 0.0 0.0 0.00 0.15 0.00 46 1017.7
20260508120036 8 20 0.0 0.0 0.00 0.20 0.00 46 1017.5
20260508113035 7 26 0.0 0.0 0.00 0.20 0.00 45 1016.9
20260508111536 7 20 0.0 0.0 0.00 0.20 0.00 44 1016.6
20260508110034 6 15 0.0 0.0 0.00 0.28 0.00 43 1016.3
20260508103038 6 15 0.0 0.0 0.00 0.28 0.00 42 1015.9
20260508101524 7 17 0.0 0.0 0.00 0.28 0.00 42 1015.5
20260508100026 7 24 0.0 0.0 0.00 0.33 0.00 42 1015.5
20260508093019 7 26 0.0 0.0 0.00 0.33 0.00 41 1015.2
20260508091517 7 19 0.0 3.2 0.00 0.33 0.00 41 1015.3
20260508090017 7 21 1.6 3.2 0.00 0.41 0.00 41 1015.0
20260508083013 8 260 0.0 3.2 0.00 0.41 0.00 38 1015.0
20260508081511 8 257 0.0 1.6 0.00 0.41 0.00 38 1014.7
20260508080010 8 257 1.6 3.2 0.00 0.51 0.00 36 1014.7
20260508073009 8 256 0.0 0.0 0.00 0.51 0.00 35 1014.5
20260508071509 8 256 0.0 3.2 0.00 0.51 0.00 32 1014.1
20260508070005 8 254 0.0 3.2 0.00 0.61 0.00 28 1014.2
20260508063002 9 254 0.0 3.2 0.00 0.61 0.00 25 1014.2
20260508061606 10 256 0.0 3.2 0.00 0.61 0.00 25 1014.0
20260508060125 10 258 0.0 3.2 0.00 0.76 0.00 25 1014.1
20260508053056 10 257 0.0 3.2 0.00 0.76 0.00 36 1014.1
20260508051557 10 259 0.0 3.2 0.00 0.76 0.00 39 1014.1
20260508050051 10 260 0.0 0.0 0.00 0.89 0.00 46 1014.1
20260508043049 11 259 0.0 0.0 0.00 0.89 0.00 58 1013.6
20260508041544 11 259 0.0 3.2 0.00 0.89 0.00 60 1013.4
20260508040038 12 259 0.0 3.2 0.00 1.04 0.89 61 1013.6
20260508033035 12 257 0.0 0.0 0.00 1.04 0.89 61 1013.5
20260508031533 13 257 0.0 1.6 0.00 1.04 0.89 61 1013.2
20260508030128 13 257 0.0 0.0 0.00 1.24 0.89 59 1013.2
20260508023024 15 257 0.0 1.6 0.00 1.24 0.89 54 1013.0
20260508021521 15 256 0.0 0.0 0.00 1.24 0.89 54 1012.8
20260508020019 16 256 0.0 0.0 0.00 1.45 0.89 51 1012.4
20260508013017 16 336 0.0 6.4 0.00 1.45 0.89 43 1012.0
20260508011516 16 258 0.0 9.7 0.00 1.45 0.89 44 1011.7
20260508010026 17 260 4.8 14.5 0.00 1.73 0.89 42 1011.4
20260508003016 17 294 0.0 9.7 0.00 1.73 0.89 47 1010.9
20260508001515 18 268 0.0 9.7 0.00 1.73 0.89 48 1010.3
20260508000014 18 292 3.2 16.1 0.00 1.93 0.89 47 1010.2
20260507233013 20 309 11.3 25.7 0.00 1.93 0.89 45 1009.7
20260507231513 20 44 3.2 16.1 0.00 1.93 0.89 53 1009.7
20260507230115 20 45 3.2 17.7 0.00 1.98 0.89 58 1009.2
20260507223010 23 64 3.2 16.1 0.00 1.98 0.89 52 1008.2
20260507221511 23 302 9.7 24.1 0.00 1.98 0.89 41 1007.8
20260507220007 25 274 9.7 24.1 0.00 1.98 0.89 41 1007.4
20260507213007 23 273 8.0 22.5 0.00 1.98 0.89 46 1006.9
20260507211507 24 240 6.4 12.9 0.00 1.98 0.89 52 1006.8
20260507210007 26 211 4.8 25.7 0.00 1.98 0.89 49 1006.6
20260507203000 27 243 4.8 19.3 0.00 1.98 0.89 47 1006.3
20260507201601 27 215 8.0 19.3 0.00 1.98 0.89 45 1006.4
20260507200100 26 203 6.4 17.7 0.00 1.98 0.89 48 1006.4
20260507194559 26 207 6.4 12.9 0.00 1.98 0.89 49 1006.6
20260507193057 24 210 0.0 8.0 0.00 1.98 0.89 53 1007.1
20260507190055 27 209 3.2 9.7 0.00 2.01 0.89 47 1007.3